Terminal Aerodrome Forecast
Issued by NWS Norman, OK

Home | Current Version | Previous Version | Text Only | Print | Product List | Glossary On
Versions: 1 2 3 4 5 6 7 8 9 10 11 12 13 14 15 16 17 18 19 20 21 22 23 24 25 26
000
FTUS44 KOUN 261132
TAFSPS
TAF
KSPS 261132Z 2612/2712 15011KT P6SM BKN180
     FM261700 19011KT P6SM BKN025
     FM270200 36016G22KT P6SM OVC025=

USA.gov is the U.S. government's official web portal to all federal, state and local government web resources and services.